Regional Weather Roundup
Issued by NWS

Home | Current Version | Previous Version | Text Only | Print | Product List | Glossary Off
Versions: 1 2 3 4 5 6 7 8 9 10 11 12 13 14 15 16 17 18 19 20 21 22 23 24 25 26 27 28 29 30 31 32 33 34 35 36 37 38 39 40 41 42 43 44 45 46 47 48 49 50

000
ASUS44 KMEG 220810
RWRTN
TENNESSEE HOURLY STATE WEATHER ROUNDUP
NATIONAL WEATHER SERVICE MEMPHIS TN
300 AM CDT MON SEP 22 2014

TNZ002-004-019-021-049-052-054-088>092-220900-
WEST TENNESSEE

CITY           SKY/WX    TMP DP  RH WIND       PRES   REMARKS
MEMPHIS INTL   CLEAR     67  50  54 NE13      30.11R
NWS MEMPHIS      N/A     65 N/A N/A MISG        N/A
JACKSON        CLEAR     58  51  78 N6        30.11R
DYERSBURG      CLEAR     61  45  55 N8        30.14R
UNION CITY     CLEAR     55  50  82 N3        30.13R
PARIS          CLEAR     52  46  82 CALM      30.13R
HUNTINGDON     CLEAR     57  49  75 N5        30.12S
LEXINGTON      CLEAR     55  52  88 N6        30.09S
SAVANNAH       CLEAR     57  54  88 N5        30.09S
$$

TNZ008-025-027-028-033-062-065-066-220900-
NORTH MIDDLE TENNESSEE

CITY           SKY/WX    TMP DP  RH WIND       PRES   REMARKS
NASHVILLE      CLEAR     60  51  72 N6        30.09S
DICKSON        CLEAR     55  48  76 N5        30.10S
PORTLAND       CLEAR     54  48  82 N3        30.09S
CLARKSVILLE    CLEAR     53  48  83 N7        30.11S
LEBANON        CLEAR     53  50  90 CALM      30.08R
SMYRNA         CLEAR     60  52  75 N8        30.10R
MURFREESBORO   CLEAR     58  50  75 CALM      30.08R
COOKEVILLE     CLEAR     54  52  94 CALM      30.06F
GALLATIN       CLEAR     58  52  80 N5        30.10S
CROSSVILLE     CLEAR     56  48  74 N5        30.09S
$$

TNZ061-075-076-078-094-096-097-220900-
SOUTH MIDDLE TENNESSEE

CITY           SKY/WX    TMP DP  RH WIND       PRES   REMARKS
LEWISBURG      CLEAR     58  51  77 NW5       30.08R
FAYETTEVILLE   CLEAR     59  48  67 N7        30.06S
TULLAHOMA      CLEAR     55  48  76 CALM      30.08S
WINCHESTER     CLEAR     55  54  94 CALM      30.07S
MCMINNVILLE    CLEAR     57  54  88 N5        30.07S
COLUMBIA       CLEAR     57  54  88 CALM      30.08R
SHELBYVILLE    CLEAR     57  52  82 N5        30.09R
$$

TNZ017-018-042-046-047-220900-
NORTHEAST TENNESSEE

CITY           SKY/WX    TMP DP  RH WIND       PRES   REMARKS
TRI CITIES     PTCLDY    54  50  86 W5        30.03R
ELIZABETHTON   SUNNY     48  48 100 CALM      30.03S FOG
$$

TNZ012-013-036-069-073-074-220900-
CENTRAL EAST TENNESSEE

CITY           SKY/WX    TMP DP  RH WIND       PRES   REMARKS
KNOXVILLE      CLEAR     60  52  74 N7        30.03S
OAK RIDGE      CLEAR     57  53  86 CALM      30.06S
GATLINBURG     SUNNY     55  54  94 CALM      30.04R
MORRISTOWN     SUNNY     61  52  72 CALM      30.05S
$$

TNZ083-085-099-220900-
SOUTHEAST TENNESSEE

CITY           SKY/WX    TMP DP  RH WIND       PRES   REMARKS
CHATTANOOGA    CLEAR     65  51  60 N7        30.04R
$$

SKY/WX REPORTED AS FAIR MEANS FEW OR NO CLOUDS BELOW
12 THOUSAND FEET.




USA.gov is the U.S. government's official web portal to all federal, state and local government web resources and services.